GFSNGP_prec_precacc_180.txt.gz
Total_Precipitation_Accumulation
0.60 0.66 0.48 0.72 1.16 1.18 0.95 0.85 1.03 1.00 0.62 0.50 0.67 1.14 1.06 0.95 0.75 0.66 0.96 0.69 0.76 0.70 0.78 0.75 0.62 0.67 0.71 0.75 0.93 1.18 1.30 1.38 1.65 2.11 2.18 2.02 2.04 2.08 1.85 1.90 2.04 1.81 1.67 1.44
0.76 0.63 0.41 0.64 0.95 0.65 0.63 0.97 0.87 0.54 0.74 0.55 0.55 0.75 0.91 0.98 0.86 0.53 0.69 0.69 0.89 0.67 0.52 0.61 0.51 0.47 0.51 0.58 0.69 0.70 0.72 0.89 0.81 0.72 0.91 1.25 1.37 1.32 1.07 1.40 1.74 1.55 1.79 1.38
0.64 0.27 0.30 0.90 0.88 0.50 0.30 0.28 0.26 0.20 0.41 0.43 0.52 0.48 0.78 0.90 0.88 0.75 0.72 0.68 0.97 0.90 0.67 0.59 0.67 0.65 0.67 0.66 0.71 0.67 0.67 0.78 0.74 0.65 0.75 0.72 0.88 0.96 1.03 0.99 1.31 1.42 1.49 1.33
0.73 0.57 1.22 0.77 0.28 0.15 0.04 0.06 0.07 0.06 0.15 0.21 0.35 0.47 0.78 0.87 0.88 0.93 0.85 0.89 1.16 1.22 0.93 0.73 0.74 0.66 0.66 0.67 0.70 0.92 0.90 0.93 0.99 0.91 0.86 0.82 0.83 0.83 1.22 1.61 1.37 1.13 1.05 0.96
0.98 0.61 0.57 0.27 0.09 0.05 0.13 0.13 0.08 0.09 0.13 0.17 0.18 0.27 0.71 0.91 0.63 0.82 0.73 0.58 0.48 0.67 0.92 0.89 0.76 0.68 0.61 0.62 0.58 0.58 0.88 0.98 1.02 1.13 1.23 1.12 1.09 1.27 1.31 1.23 1.07 0.97 0.88 0.86
1.18 0.88 0.52 0.20 0.06 0.06 0.14 0.31 0.14 0.09 0.09 0.09 0.15 0.40 0.45 0.54 0.53 0.70 0.43 0.21 0.15 0.17 0.28 0.43 0.64 0.81 0.77 0.77 0.80 0.70 0.75 0.93 1.04 1.09 1.33 1.54 1.67 1.51 1.24 1.16 1.23 1.19 1.12 1.06
1.27 1.33 0.53 0.09 0.11 0.12 0.40 0.58 0.17 0.12 0.07 0.06 0.15 0.31 0.45 0.33 0.56 0.70 0.17 0.06 0.03 0.06 0.15 0.25 0.31 0.40 0.55 0.66 0.77 0.85 0.78 0.75 0.91 1.12 1.13 1.23 1.27 1.33 1.37 1.34 1.24 1.26 1.34 1.31
1.11 1.33 0.69 0.22 0.40 0.55 0.54 0.24 0.12 0.13 0.10 0.11 0.17 0.35 0.52 0.58 0.61 0.37 0.12 0.03 0.01 0.02 0.04 0.06 0.14 0.23 0.39 0.54 0.44 0.38 0.43 0.48 0.47 0.47 0.65 0.74 0.85 0.98 0.99 1.02 1.09 1.07 1.05 1.09
0.51 0.69 0.66 0.53 0.52 0.39 0.21 0.24 0.24 0.17 0.13 0.19 0.43 0.66 0.77 0.74 0.57 0.33 0.12 0.03 0.02 0.01 0.00 0.04 0.19 0.26 0.36 0.24 0.13 0.11 0.13 0.18 0.22 0.22 0.25 0.39 0.54 0.62 0.67 0.75 0.78 0.78 0.80 0.88
1.14 0.83 0.60 0.71 0.60 0.33 0.30 0.34 0.28 0.18 0.19 0.27 0.35 0.40 0.44 0.45 0.40 0.30 0.08 0.04 0.06 0.03 0.03 0.08 0.26 0.36 0.19 0.09 0.08 0.09 0.09 0.08 0.08 0.10 0.15 0.15 0.19 0.26 0.34 0.44 0.51 0.65 0.75 0.80
1.34 0.97 0.81 0.90 1.20 0.65 0.36 0.26 0.15 0.07 0.05 0.07 0.07 0.09 0.10 0.13 0.13 0.12 0.13 0.05 0.05 0.07 0.09 0.08 0.09 0.10 0.12 0.13 0.11 0.11 0.10 0.10 0.10 0.10 0.11 0.09 0.15 0.26 0.29 0.51 0.57 0.61 0.76 0.92
1.41 1.43 1.34 1.20 1.09 1.06 0.68 0.42 0.22 0.14 0.12 0.11 0.07 0.14 0.24 0.34 0.31 0.24 0.14 0.07 0.06 0.06 0.07 0.09 0.09 0.12 0.13 0.12 0.12 0.13 0.15 0.16 0.23 0.20 0.19 0.18 0.19 0.27 0.39 0.50 0.55 0.63 0.76 0.85
0.63 0.78 1.14 1.18 0.71 0.37 0.28 0.19 0.10 0.08 0.07 0.10 0.09 0.07 0.13 0.19 0.30 0.38 0.35 0.22 0.08 0.07 0.09 0.11 0.16 0.20 0.26 0.30 0.29 0.31 0.33 0.31 0.32 0.36 0.36 0.34 0.36 0.38 0.49 0.71 0.76 0.91 1.00 1.06
0.13 0.24 0.29 0.21 0.17 0.04 0.02 0.02 0.02 0.02 0.02 0.05 0.13 0.22 0.30 0.30 0.30 0.32 0.34 0.29 0.16 0.12 0.14 0.18 0.25 0.40 0.56 0.64 0.66 0.71 0.72 0.77 0.73 0.76 0.81 0.86 0.92 1.04 1.15 1.26 1.42 1.64 1.59 1.39
0.06 0.06 0.05 0.04 0.02 0.02 0.02 0.02 0.02 0.02 0.06 0.13 0.13 0.13 0.20 0.30 0.35 0.31 0.27 0.28 0.30 0.32 0.34 0.36 0.37 0.45 0.43 0.47 0.55 0.66 0.78 1.00 1.09 1.13 1.21 1.25 1.23 1.23 1.21 1.15 1.11 1.12 1.05 0.95
0.02 0.04 0.08 0.10 0.11 0.11 0.11 0.11 0.16 0.28 0.32 0.22 0.17 0.17 0.18 0.17 0.22 0.25 0.25 0.23 0.22 0.29 0.31 0.29 0.39 0.56 0.49 0.50 0.62 0.76 0.92 1.07 1.08 1.11 1.12 1.06 0.97 0.85 0.77 0.74 0.68 0.64 0.61 0.62
0.07 0.09 0.12 0.14 0.15 0.21 0.28 0.36 0.46 0.44 0.35 0.34 0.38 0.38 0.34 0.35 0.37 0.44 0.50 0.49 0.48 0.56 0.61 0.62 0.87 0.87 0.86 0.85 0.80 0.86 0.81 0.80 0.75 0.68 0.65 0.64 0.62 0.58 0.56 0.53 0.54 0.49 0.50 0.47
0.16 0.15 0.16 0.20 0.30 0.43 0.44 0.34 0.28 0.30 0.36 0.39 0.38 0.39 0.43 0.46 0.53 0.62 0.71 0.67 0.65 0.75 0.89 0.99 0.93 0.87 0.84 0.75 0.57 0.51 0.45 0.41 0.37 0.36 0.36 0.35 0.33 0.31 0.32 0.30 0.28 0.28 0.28 0.25
0.20 0.26 0.32 0.41 0.41 0.29 0.24 0.27 0.33 0.38 0.46 0.51 0.53 0.68 0.75 0.83 0.86 0.96 0.96 0.82 0.80 0.76 0.95 0.72 0.54 0.37 0.34 0.39 0.31 0.20 0.22 0.23 0.24 0.23 0.23 0.21 0.20 0.21 0.24 0.28 0.30 0.31 0.31 0.32
0.41 0.37 0.28 0.27 0.29 0.32 0.43 0.58 0.59 0.66 0.83 0.75 0.74 0.77 0.80 0.94 0.90 0.83 0.68 0.61 0.60 0.59 0.49 0.38 0.27 0.21 0.21 0.21 0.23 0.20 0.16 0.17 0.17 0.17 0.18 0.20 0.24 0.29 0.31 0.30 0.30 0.33 0.37 0.36
0.65 0.62 0.65 0.67 0.74 0.80 0.79 0.84 0.67 0.76 0.95 0.81 0.63 0.72 0.73 0.79 0.69 0.58 0.44 0.47 0.58 0.42 0.32 0.26 0.20 0.17 0.14 0.13 0.13 0.13 0.16 0.20 0.26 0.29 0.32 0.34 0.32 0.30 0.29 0.30 0.36 0.38 0.36 0.31
0.73 0.67 0.72 0.74 0.62 0.75 0.81 0.73 0.56 0.58 0.60 0.59 0.61 0.62 0.52 0.54 0.47 0.40 0.37 0.32 0.37 0.25 0.16 0.14 0.12 0.08 0.08 0.12 0.17 0.17 0.17 0.23 0.29 0.29 0.30 0.32 0.36 0.39 0.39 0.35 0.33 0.30 0.28 0.26
0.65 0.60 0.57 0.54 0.47 0.52 0.54 0.49 0.50 0.40 0.41 0.45 0.45 0.43 0.37 0.38 0.35 0.30 0.38 0.39 0.26 0.21 0.14 0.12 0.11 0.08 0.09 0.17 0.24 0.23 0.26 0.35 0.41 0.42 0.45 0.48 0.44 0.38 0.30 0.26 0.23 0.22 0.22 0.21
0.54 0.50 0.47 0.45 0.33 0.23 0.31 0.45 0.35 0.35 0.34 0.31 0.24 0.20 0.15 0.15 0.21 0.18 0.18 0.22 0.26 0.28 0.29 0.26 0.23 0.22 0.26 0.39 0.41 0.39 0.40 0.46 0.45 0.38 0.37 0.35 0.33 0.28 0.25 0.21 0.18 0.17 0.19 0.17
0.43 0.42 0.38 0.30 0.25 0.33 0.27 0.23 0.15 0.14 0.14 0.16 0.19 0.15 0.12 0.12 0.21 0.21 0.16 0.16 0.15 0.20 0.27 0.30 0.36 0.38 0.47 0.54 0.50 0.43 0.43 0.44 0.39 0.38 0.38 0.35 0.29 0.26 0.23 0.21 0.19 0.19 0.19 0.18
0.33 0.32 0.31 0.25 0.24 0.20 0.17 0.12 0.14 0.16 0.11 0.15 0.23 0.23 0.21 0.17 0.15 0.17 0.21 0.23 0.21 0.21 0.26 0.30 0.29 0.30 0.34 0.37 0.38 0.34 0.36 0.35 0.34 0.36 0.32 0.28 0.26 0.26 0.23 0.21 0.20 0.20 0.21 0.22
0.30 0.25 0.19 0.17 0.17 0.16 0.16 0.17 0.17 0.20 0.18 0.20 0.26 0.30 0.25 0.23 0.20 0.18 0.20 0.21 0.22 0.24 0.28 0.33 0.33 0.34 0.34 0.33 0.34 0.33 0.33 0.32 0.28 0.25 0.24 0.25 0.25 0.24 0.24 0.22 0.21 0.20 0.20 0.20

GFSNGP_prec_precacc_183.txt.gz
Total_Precipitation_Accumulation
0.69 0.78 0.59 0.78 1.17 1.18 0.95 0.85 1.03 1.00 0.62 0.50 0.67 1.14 1.06 0.95 0.75 0.66 0.96 0.69 0.76 0.70 0.78 0.75 0.62 0.67 0.71 0.75 0.93 1.18 1.31 1.38 1.65 2.11 2.18 2.02 2.05 2.11 1.86 1.91 2.04 1.81 1.67 1.44
0.77 0.63 0.43 0.66 0.95 0.65 0.63 0.97 0.87 0.54 0.74 0.55 0.55 0.75 0.91 0.98 0.86 0.53 0.69 0.69 0.89 0.67 0.52 0.61 0.51 0.47 0.51 0.58 0.70 0.70 0.72 0.89 0.81 0.72 0.91 1.25 1.40 1.35 1.09 1.41 1.74 1.55 1.79 1.38
0.64 0.27 0.31 0.92 0.88 0.50 0.30 0.28 0.27 0.20 0.41 0.43 0.52 0.48 0.78 0.90 0.88 0.75 0.72 0.68 0.97 0.90 0.67 0.59 0.67 0.66 0.67 0.66 0.72 0.67 0.68 0.78 0.74 0.65 0.75 0.74 0.94 1.03 1.09 1.03 1.32 1.42 1.49 1.33
0.73 0.57 1.24 0.77 0.28 0.15 0.04 0.07 0.07 0.06 0.15 0.21 0.35 0.47 0.78 0.87 0.88 0.93 0.85 0.89 1.16 1.22 0.93 0.73 0.75 0.67 0.66 0.68 0.71 0.92 0.90 0.93 1.00 0.92 0.87 0.90 0.98 0.97 1.34 1.67 1.37 1.13 1.05 0.96
1.00 0.62 0.57 0.27 0.09 0.05 0.13 0.13 0.08 0.09 0.13 0.17 0.18 0.27 0.71 0.91 0.63 0.82 0.73 0.58 0.48 0.67 0.92 0.89 0.76 0.69 0.62 0.63 0.58 0.59 0.88 0.98 1.02 1.14 1.27 1.25 1.25 1.43 1.41 1.25 1.07 0.97 0.88 0.86
1.26 0.89 0.52 0.20 0.06 0.06 0.14 0.31 0.14 0.09 0.09 0.09 0.15 0.40 0.45 0.54 0.53 0.70 0.43 0.21 0.15 0.17 0.28 0.43 0.65 0.82 0.78 0.78 0.83 0.74 0.78 0.95 1.09 1.19 1.47 1.70 1.85 1.66 1.30 1.16 1.23 1.19 1.12 1.06
1.43 1.41 0.54 0.09 0.11 0.12 0.40 0.58 0.17 0.12 0.07 0.06 0.15 0.31 0.45 0.33 0.56 0.70 0.17 0.06 0.03 0.06 0.15 0.25 0.31 0.40 0.55 0.67 0.78 0.87 0.81 0.88 1.12 1.36 1.39 1.48 1.45 1.42 1.38 1.34 1.24 1.26 1.34 1.31
1.15 1.41 0.73 0.22 0.41 0.56 0.54 0.24 0.12 0.13 0.10 0.11 0.17 0.35 0.52 0.58 0.61 0.37 0.12 0.03 0.01 0.02 0.04 0.06 0.14 0.23 0.39 0.57 0.51 0.50 0.60 0.68 0.73 0.75 0.89 0.88 0.91 0.99 0.99 1.02 1.09 1.07 1.05 1.09
0.59 0.73 0.69 0.54 0.52 0.39 0.21 0.24 0.24 0.17 0.13 0.19 0.43 0.66 0.77 0.74 0.57 0.33 0.12 0.03 0.03 0.01 0.00 0.04 0.20 0.32 0.53 0.49 0.43 0.43 0.46 0.54 0.53 0.43 0.36 0.43 0.55 0.62 0.67 0.75 0.78 0.78 0.80 0.88
1.15 0.84 0.61 0.71 0.60 0.33 0.30 0.34 0.28 0.18 0.19 0.27 0.35 0.40 0.44 0.45 0.40 0.30 0.08 0.04 0.11 0.08 0.04 0.11 0.50 0.67 0.47 0.23 0.19 0.23 0.28 0.29 0.25 0.20 0.17 0.15 0.19 0.26 0.34 0.44 0.51 0.65 0.75 0.80
1.34 0.97 0.81 0.90 1.20 0.65 0.36 0.27 0.15 0.07 0.05 0.07 0.07 0.09 0.10 0.13 0.13 0.12 0.13 0.05 0.06 0.08 0.10 0.25 0.32 0.35 0.26 0.21 0.19 0.22 0.20 0.17 0.13 0.11 0.11 0.09 0.15 0.26 0.29 0.51 0.57 0.61 0.76 0.92
1.41 1.43 1.34 1.20 1.09 1.13 0.74 0.46 0.23 0.14 0.12 0.11 0.07 0.14 0.24 0.34 0.31 0.24 0.14 0.07 0.06 0.06 0.07 0.13 0.10 0.14 0.19 0.20 0.15 0.14 0.15 0.16 0.23 0.20 0.19 0.18 0.19 0.27 0.39 0.50 0.55 0.63 0.76 0.85
0.63 0.78 1.14 1.18 0.72 0.41 0.34 0.22 0.11 0.08 0.07 0.10 0.09 0.07 0.13 0.19 0.30 0.38 0.35 0.23 0.08 0.07 0.09 0.11 0.16 0.20 0.27 0.31 0.29 0.31 0.33 0.31 0.32 0.36 0.36 0.34 0.36 0.38 0.49 0.71 0.76 0.91 1.00 1.06
0.13 0.24 0.29 0.21 0.17 0.04 0.02 0.02 0.02 0.02 0.02 0.05 0.13 0.22 0.30 0.30 0.30 0.32 0.34 0.29 0.16 0.12 0.14 0.18 0.25 0.40 0.56 0.64 0.66 0.71 0.72 0.77 0.73 0.76 0.81 0.86 0.92 1.04 1.15 1.26 1.42 1.64 1.59 1.39
0.06 0.06 0.05 0.04 0.02 0.02 0.02 0.02 0.02 0.02 0.06 0.13 0.13 0.13 0.20 0.30 0.35 0.31 0.27 0.28 0.30 0.32 0.34 0.36 0.37 0.45 0.43 0.47 0.55 0.66 0.78 1.00 1.09 1.13 1.21 1.25 1.23 1.23 1.21 1.15 1.11 1.12 1.05 0.95
0.02 0.04 0.08 0.10 0.11 0.11 0.11 0.11 0.16 0.28 0.32 0.22 0.17 0.17 0.18 0.17 0.22 0.25 0.25 0.23 0.22 0.29 0.31 0.29 0.39 0.56 0.49 0.50 0.62 0.76 0.92 1.07 1.08 1.11 1.12 1.06 0.97 0.85 0.77 0.74 0.68 0.64 0.61 0.63
0.07 0.09 0.12 0.14 0.15 0.21 0.28 0.36 0.46 0.44 0.35 0.34 0.38 0.38 0.34 0.35 0.37 0.44 0.50 0.49 0.48 0.56 0.61 0.62 0.88 0.87 0.86 0.85 0.80 0.86 0.81 0.80 0.75 0.68 0.65 0.64 0.62 0.58 0.56 0.53 0.54 0.49 0.50 0.47
0.16 0.15 0.16 0.20 0.30 0.44 0.44 0.34 0.28 0.30 0.36 0.39 0.38 0.39 0.43 0.46 0.53 0.62 0.71 0.67 0.65 0.75 0.89 1.00 0.95 0.87 0.85 0.77 0.60 0.53 0.46 0.41 0.37 0.36 0.36 0.35 0.33 0.31 0.32 0.30 0.28 0.28 0.28 0.25
0.20 0.27 0.33 0.41 0.42 0.29 0.24 0.27 0.33 0.38 0.46 0.51 0.53 0.68 0.75 0.83 0.86 0.96 0.96 0.82 0.80 0.76 0.95 0.72 0.54 0.37 0.34 0.42 0.45 0.37 0.28 0.25 0.24 0.23 0.23 0.21 0.20 0.21 0.24 0.28 0.30 0.31 0.31 0.32
0.41 0.47 0.32 0.27 0.29 0.32 0.43 0.58 0.59 0.66 0.83 0.75 0.74 0.77 0.80 0.94 0.90 0.83 0.68 0.61 0.60 0.59 0.49 0.38 0.27 0.21 0.21 0.22 0.29 0.42 0.47 0.33 0.24 0.20 0.19 0.20 0.25 0.29 0.31 0.30 0.30 0.34 0.37 0.36
0.66 0.65 0.72 0.69 0.74 0.80 0.79 0.84 0.67 0.76 0.95 0.81 0.63 0.72 0.73 0.79 0.69 0.58 0.44 0.47 0.58 0.42 0.32 0.26 0.20 0.17 0.14 0.15 0.15 0.17 0.31 0.49 0.50 0.36 0.33 0.34 0.35 0.33 0.35 0.36 0.39 0.40 0.37 0.31
0.74 0.69 0.72 0.74 0.62 0.75 0.81 0.73 0.56 0.58 0.60 0.59 0.61 0.62 0.52 0.54 0.47 0.40 0.37 0.32 0.37 0.25 0.16 0.14 0.12 0.09 0.09 0.13 0.17 0.17 0.17 0.27 0.39 0.37 0.34 0.35 0.38 0.43 0.46 0.44 0.40 0.34 0.32 0.28
0.65 0.60 0.58 0.54 0.47 0.52 0.54 0.49 0.50 0.40 0.41 0.45 0.45 0.43 0.37 0.38 0.35 0.30 0.38 0.39 0.26 0.21 0.14 0.12 0.11 0.09 0.10 0.18 0.24 0.23 0.26 0.35 0.43 0.45 0.47 0.52 0.49 0.45 0.40 0.34 0.30 0.28 0.28 0.24
0.54 0.50 0.47 0.45 0.33 0.23 0.31 0.45 0.35 0.35 0.34 0.31 0.24 0.20 0.15 0.15 0.21 0.18 0.18 0.22 0.26 0.28 0.29 0.26 0.24 0.23 0.27 0.40 0.42 0.40 0.41 0.48 0.49 0.43 0.43 0.43 0.43 0.38 0.33 0.28 0.25 0.25 0.25 0.22
0.43 0.42 0.38 0.30 0.25 0.33 0.27 0.23 0.15 0.14 0.14 0.16 0.19 0.15 0.12 0.12 0.21 0.21 0.16 0.16 0.15 0.20 0.27 0.30 0.37 0.39 0.50 0.56 0.52 0.46 0.46 0.49 0.44 0.44 0.46 0.45 0.38 0.32 0.28 0.25 0.25 0.27 0.25 0.23
0.33 0.32 0.31 0.25 0.24 0.20 0.17 0.12 0.14 0.16 0.11 0.15 0.23 0.23 0.21 0.17 0.15 0.17 0.21 0.23 0.21 0.21 0.26 0.30 0.30 0.31 0.37 0.40 0.40 0.37 0.41 0.40 0.39 0.42 0.39 0.34 0.31 0.32 0.28 0.27 0.27 0.27 0.26 0.26
0.30 0.25 0.19 0.17 0.17 0.16 0.16 0.17 0.17 0.20 0.18 0.20 0.26 0.30 0.25 0.23 0.20 0.18 0.20 0.21 0.22 0.24 0.29 0.33 0.33 0.35 0.36 0.36 0.36 0.36 0.36 0.36 0.32 0.29 0.29 0.30 0.30 0.29 0.28 0.27 0.26 0.25 0.25 0.24

GFSNGP_prec_precacc_189.txt.gz
Total_Precipitation_Accumulation
0.78 0.83 0.66 0.86 1.25 1.29 1.11 1.04 1.24 1.15 0.74 0.59 0.75 1.17 1.06 0.95 0.75 0.66 0.96 0.69 0.76 0.70 0.78 0.75 0.62 0.67 0.71 0.76 0.93 1.20 1.35 1.47 1.79 2.33 2.41 2.20 2.20 2.19 1.89 1.91 2.04 1.81 1.67 1.44
0.89 0.69 0.54 0.80 1.05 0.72 0.70 1.03 0.93 0.56 0.75 0.55 0.55 0.76 0.91 0.98 0.86 0.53 0.69 0.69 0.89 0.67 0.52 0.61 0.51 0.47 0.51 0.58 0.70 0.71 0.73 0.92 0.87 0.83 1.05 1.42 1.56 1.43 1.13 1.43 1.76 1.57 1.81 1.40
0.83 0.35 0.44 1.14 0.93 0.52 0.32 0.29 0.27 0.21 0.41 0.43 0.52 0.48 0.78 0.90 0.88 0.75 0.72 0.68 0.97 0.90 0.67 0.59 0.67 0.66 0.67 0.66 0.72 0.67 0.68 0.79 0.75 0.68 0.81 0.83 1.05 1.15 1.16 1.07 1.36 1.46 1.52 1.35
0.91 0.72 1.51 0.83 0.29 0.16 0.05 0.07 0.07 0.06 0.15 0.21 0.35 0.47 0.78 0.87 0.88 0.93 0.85 0.89 1.16 1.22 0.93 0.73 0.75 0.67 0.66 0.68 0.71 0.92 0.90 0.94 1.01 0.94 0.90 0.94 1.02 1.02 1.39 1.76 1.47 1.19 1.10 1.00
1.17 0.76 0.66 0.29 0.09 0.05 0.13 0.13 0.08 0.09 0.13 0.17 0.18 0.27 0.71 0.91 0.63 0.82 0.73 0.58 0.48 0.67 0.92 0.89 0.76 0.69 0.62 0.63 0.58 0.59 0.89 1.00 1.04 1.16 1.29 1.29 1.32 1.49 1.51 1.41 1.22 1.08 0.95 0.93
1.66 1.09 0.58 0.21 0.06 0.06 0.14 0.31 0.14 0.09 0.09 0.09 0.15 0.40 0.45 0.54 0.53 0.70 0.43 0.21 0.15 0.17 0.28 0.43 0.65 0.82 0.78 0.78 0.83 0.74 0.78 0.96 1.11 1.23 1.53 1.80 1.99 1.85 1.56 1.44 1.46 1.38 1.26 1.16
1.73 1.75 0.69 0.10 0.11 0.12 0.40 0.58 0.17 0.12 0.07 0.06 0.15 0.31 0.45 0.33 0.56 0.70 0.17 0.06 0.03 0.06 0.15 0.25 0.31 0.40 0.55 0.67 0.78 0.87 0.82 0.89 1.15 1.42 1.48 1.67 1.82 1.92 1.94 1.81 1.61 1.55 1.54 1.43
1.30 1.64 0.95 0.35 0.43 0.56 0.54 0.24 0.12 0.13 0.10 0.11 0.17 0.35 0.52 0.58 0.61 0.37 0.12 0.03 0.01 0.02 0.04 0.06 0.14 0.23 0.39 0.57 0.52 0.50 0.60 0.69 0.77 0.87 1.14 1.28 1.45 1.62 1.60 1.56 1.51 1.35 1.22 1.19
0.87 1.10 1.06 0.82 0.65 0.42 0.22 0.24 0.24 0.17 0.13 0.19 0.43 0.66 0.77 0.74 0.57 0.33 0.12 0.03 0.03 0.02 0.01 0.05 0.20 0.32 0.54 0.49 0.45 0.46 0.50 0.66 0.77 0.75 0.82 1.01 1.10 1.15 1.15 1.16 1.09 0.99 0.93 0.94
1.17 0.94 0.74 1.00 0.73 0.37 0.32 0.34 0.28 0.18 0.19 0.27 0.35 0.40 0.44 0.45 0.40 0.30 0.08 0.04 0.11 0.09 0.06 0.12 0.52 0.71 0.50 0.26 0.23 0.33 0.46 0.54 0.61 0.65 0.68 0.67 0.68 0.64 0.60 0.65 0.66 0.75 0.81 0.83
1.34 0.98 0.81 0.91 1.20 0.66 0.37 0.27 0.15 0.07 0.05 0.07 0.07 0.09 0.10 0.13 0.13 0.12 0.13 0.05 0.06 0.09 0.10 0.26 0.39 0.41 0.32 0.31 0.28 0.34 0.38 0.43 0.44 0.42 0.39 0.37 0.39 0.46 0.45 0.62 0.63 0.64 0.78 0.92
1.41 1.43 1.34 1.20 1.09 1.13 0.74 0.46 0.23 0.14 0.12 0.11 0.07 0.14 0.24 0.34 0.31 0.24 0.14 0.07 0.07 0.06 0.07 0.13 0.11 0.19 0.29 0.37 0.30 0.31 0.34 0.34 0.41 0.41 0.38 0.34 0.35 0.47 0.58 0.65 0.66 0.71 0.79 0.85
0.63 0.78 1.14 1.18 0.72 0.41 0.34 0.22 0.13 0.08 0.07 0.10 0.09 0.07 0.13 0.19 0.30 0.38 0.35 0.23 0.08 0.07 0.09 0.11 0.16 0.20 0.30 0.39 0.31 0.32 0.34 0.34 0.38 0.45 0.46 0.44 0.47 0.47 0.56 0.78 0.82 0.93 1.00 1.06
0.13 0.24 0.29 0.21 0.17 0.04 0.02 0.02 0.02 0.02 0.02 0.05 0.13 0.22 0.30 0.30 0.30 0.32 0.34 0.29 0.16 0.12 0.14 0.18 0.25 0.40 0.56 0.64 0.66 0.71 0.72 0.77 0.73 0.77 0.84 0.91 0.97 1.09 1.18 1.27 1.43 1.65 1.59 1.39
0.06 0.06 0.05 0.04 0.02 0.02 0.02 0.02 0.02 0.03 0.06 0.13 0.13 0.13 0.20 0.30 0.35 0.31 0.27 0.28 0.30 0.32 0.34 0.36 0.37 0.45 0.43 0.47 0.55 0.66 0.78 1.00 1.09 1.13 1.21 1.25 1.23 1.24 1.22 1.16 1.11 1.12 1.06 0.96
0.02 0.04 0.08 0.10 0.11 0.11 0.11 0.11 0.16 0.28 0.32 0.22 0.17 0.17 0.18 0.17 0.22 0.25 0.25 0.23 0.22 0.29 0.31 0.29 0.40 0.56 0.49 0.50 0.62 0.76 0.93 1.08 1.09 1.12 1.12 1.06 0.97 0.85 0.77 0.74 0.68 0.64 0.62 0.63
0.07 0.09 0.12 0.14 0.15 0.21 0.28 0.36 0.46 0.44 0.35 0.34 0.38 0.38 0.34 0.35 0.37 0.44 0.50 0.49 0.48 0.56 0.61 0.62 0.88 0.88 0.86 0.85 0.80 0.86 0.83 0.84 0.79 0.72 0.69 0.66 0.63 0.59 0.56 0.53 0.54 0.49 0.50 0.47
0.16 0.15 0.16 0.20 0.30 0.44 0.44 0.34 0.28 0.30 0.36 0.39 0.38 0.39 0.43 0.46 0.53 0.62 0.71 0.67 0.65 0.75 0.89 1.00 0.95 0.87 0.85 0.77 0.60 0.54 0.49 0.47 0.45 0.46 0.44 0.42 0.37 0.33 0.33 0.30 0.28 0.28 0.28 0.25
0.20 0.27 0.33 0.41 0.42 0.31 0.24 0.28 0.33 0.38 0.46 0.51 0.53 0.68 0.75 0.83 0.86 0.96 0.96 0.82 0.80 0.76 0.95 0.72 0.54 0.37 0.34 0.43 0.46 0.38 0.34 0.35 0.36 0.35 0.33 0.31 0.28 0.25 0.27 0.29 0.30 0.31 0.31 0.32
0.41 0.47 0.33 0.27 0.30 0.35 0.44 0.58 0.59 0.66 0.83 0.75 0.74 0.77 0.80 0.94 0.90 0.83 0.68 0.61 0.60 0.59 0.49 0.38 0.27 0.21 0.21 0.22 0.31 0.42 0.50 0.43 0.40 0.40 0.38 0.36 0.38 0.37 0.34 0.32 0.31 0.35 0.38 0.36
0.66 0.69 0.82 0.73 0.77 0.83 0.80 0.85 0.67 0.76 0.95 0.81 0.63 0.72 0.73 0.79 0.69 0.58 0.45 0.47 0.58 0.42 0.32 0.26 0.20 0.17 0.14 0.15 0.16 0.17 0.32 0.53 0.64 0.59 0.60 0.62 0.60 0.54 0.50 0.45 0.44 0.43 0.39 0.33
0.77 0.85 0.97 0.88 0.66 0.77 0.83 0.73 0.56 0.58 0.60 0.59 0.61 0.62 0.52 0.54 0.47 0.40 0.37 0.33 0.37 0.25 0.16 0.14 0.12 0.09 0.10 0.14 0.17 0.18 0.18 0.28 0.42 0.52 0.62 0.73 0.80 0.78 0.72 0.65 0.59 0.47 0.41 0.35
0.66 0.64 0.63 0.58 0.50 0.53 0.55 0.50 0.50 0.40 0.41 0.45 0.45 0.43 0.37 0.38 0.35 0.30 0.39 0.40 0.26 0.21 0.14 0.12 0.12 0.10 0.11 0.18 0.24 0.24 0.27 0.36 0.46 0.48 0.53 0.64 0.71 0.73 0.68 0.61 0.53 0.48 0.46 0.37
0.54 0.50 0.47 0.45 0.33 0.24 0.31 0.45 0.35 0.35 0.34 0.31 0.24 0.20 0.15 0.15 0.21 0.18 0.18 0.23 0.26 0.29 0.30 0.26 0.25 0.24 0.28 0.41 0.43 0.42 0.43 0.52 0.54 0.50 0.54 0.58 0.60 0.51 0.52 0.51 0.47 0.43 0.39 0.32
0.43 0.42 0.38 0.30 0.25 0.33 0.27 0.23 0.15 0.14 0.14 0.16 0.19 0.15 0.12 0.12 0.21 0.21 0.16 0.16 0.16 0.21 0.27 0.31 0.38 0.40 0.51 0.58 0.54 0.49 0.50 0.55 0.51 0.55 0.58 0.57 0.49 0.41 0.35 0.31 0.31 0.33 0.32 0.30
0.33 0.32 0.31 0.25 0.24 0.20 0.17 0.12 0.14 0.16 0.11 0.15 0.23 0.23 0.21 0.17 0.15 0.17 0.21 0.23 0.22 0.22 0.27 0.30 0.31 0.32 0.38 0.42 0.43 0.40 0.44 0.44 0.45 0.49 0.45 0.40 0.36 0.37 0.33 0.32 0.34 0.34 0.32 0.33
0.31 0.26 0.19 0.17 0.18 0.16 0.16 0.17 0.17 0.20 0.18 0.20 0.26 0.30 0.25 0.23 0.20 0.18 0.20 0.22 0.22 0.25 0.29 0.34 0.33 0.36 0.37 0.37 0.38 0.38 0.39 0.40 0.37 0.34 0.35 0.36 0.37 0.36 0.36 0.36 0.34 0.33 0.33 0.33

GFSNGP_prec_precacc_195.txt.gz
Total_Precipitation_Accumulation
0.88 0.92 0.71 0.91 1.29 1.36 1.34 1.42 1.76 1.55 1.12 0.96 1.10 1.55 1.41 1.12 0.82 0.68 0.96 0.69 0.76 0.70 0.78 0.75 0.62 0.67 0.71 0.76 0.93 1.20 1.35 1.47 1.79 2.34 2.48 2.37 2.45 2.50 2.22 2.21 2.25 1.98 1.84 1.59
0.90 0.70 0.55 0.83 1.05 0.73 0.72 1.08 1.07 0.70 0.88 0.69 0.80 1.03 1.17 1.15 0.95 0.60 0.70 0.69 0.89 0.67 0.52 0.61 0.51 0.47 0.51 0.58 0.70 0.71 0.73 0.92 0.87 0.83 1.08 1.50 1.70 1.67 1.42 1.74 2.03 1.76 1.93 1.47
0.84 0.35 0.48 1.23 0.96 0.52 0.32 0.30 0.32 0.36 0.50 0.52 0.65 0.55 0.83 0.95 0.94 0.78 0.73 0.68 0.97 0.90 0.67 0.59 0.67 0.66 0.67 0.66 0.72 0.67 0.68 0.79 0.75 0.68 0.82 0.86 1.14 1.31 1.41 1.32 1.58 1.64 1.64 1.41
0.92 0.72 1.55 0.86 0.30 0.17 0.08 0.12 0.13 0.13 0.21 0.39 0.50 0.55 0.82 0.90 0.90 0.93 0.85 0.89 1.16 1.22 0.93 0.73 0.75 0.67 0.66 0.68 0.71 0.92 0.90 0.94 1.01 0.94 0.90 0.94 1.07 1.11 1.52 1.92 1.69 1.42 1.31 1.18
1.20 0.77 0.67 0.29 0.09 0.06 0.14 0.15 0.09 0.10 0.20 0.24 0.20 0.28 0.71 0.92 0.63 0.82 0.73 0.58 0.48 0.67 0.92 0.89 0.76 0.69 0.62 0.63 0.58 0.59 0.89 1.00 1.04 1.16 1.29 1.29 1.32 1.52 1.63 1.65 1.53 1.39 1.19 1.12
1.73 1.16 0.63 0.24 0.09 0.06 0.15 0.33 0.15 0.09 0.11 0.10 0.16 0.42 0.46 0.54 0.53 0.70 0.43 0.21 0.15 0.17 0.28 0.43 0.65 0.82 0.78 0.78 0.83 0.74 0.78 0.96 1.11 1.23 1.53 1.80 1.99 1.85 1.59 1.53 1.68 1.70 1.67 1.51
1.92 1.96 0.82 0.19 0.13 0.15 0.53 0.73 0.25 0.13 0.08 0.07 0.17 0.32 0.45 0.33 0.56 0.70 0.17 0.06 0.03 0.06 0.15 0.25 0.31 0.40 0.55 0.67 0.78 0.87 0.82 0.89 1.15 1.42 1.48 1.67 1.82 1.92 1.98 1.95 1.83 1.84 1.89 1.85
1.57 1.96 1.31 0.48 0.52 0.73 0.75 0.37 0.18 0.14 0.12 0.12 0.21 0.36 0.52 0.58 0.61 0.37 0.12 0.03 0.01 0.02 0.04 0.06 0.14 0.23 0.39 0.57 0.52 0.50 0.60 0.69 0.77 0.87 1.14 1.28 1.45 1.64 1.62 1.62 1.66 1.61 1.57 1.63
0.96 1.35 1.25 1.07 0.97 0.62 0.38 0.45 0.36 0.19 0.16 0.22 0.45 0.66 0.77 0.74 0.57 0.33 0.12 0.03 0.03 0.02 0.01 0.05 0.20 0.32 0.54 0.49 0.45 0.46 0.50 0.66 0.77 0.75 0.83 1.03 1.12 1.18 1.19 1.22 1.21 1.19 1.16 1.21
1.18 0.97 0.77 1.12 0.92 0.58 0.47 0.52 0.43 0.20 0.20 0.29 0.36 0.41 0.44 0.45 0.40 0.30 0.08 0.04 0.12 0.09 0.06 0.12 0.52 0.71 0.50 0.26 0.23 0.33 0.46 0.54 0.62 0.68 0.74 0.75 0.78 0.73 0.69 0.76 0.80 0.90 0.98 1.03
1.35 0.98 0.82 0.92 1.22 0.68 0.42 0.39 0.37 0.13 0.09 0.12 0.07 0.09 0.10 0.13 0.13 0.12 0.14 0.06 0.06 0.09 0.10 0.26 0.39 0.41 0.32 0.31 0.28 0.34 0.38 0.44 0.45 0.45 0.44 0.44 0.48 0.56 0.54 0.69 0.69 0.73 0.88 1.03
1.41 1.43 1.34 1.20 1.09 1.13 0.74 0.49 0.40 0.44 0.23 0.16 0.09 0.14 0.24 0.34 0.31 0.24 0.14 0.07 0.07 0.06 0.07 0.13 0.11 0.19 0.30 0.37 0.30 0.31 0.34 0.34 0.42 0.43 0.44 0.41 0.43 0.57 0.72 0.78 0.81 0.88 0.97 1.01
0.63 0.78 1.14 1.18 0.72 0.41 0.34 0.22 0.14 0.28 0.11 0.11 0.09 0.07 0.13 0.19 0.30 0.38 0.35 0.23 0.08 0.07 0.09 0.11 0.16 0.20 0.30 0.39 0.31 0.32 0.34 0.34 0.38 0.46 0.49 0.50 0.55 0.55 0.68 1.00 1.07 1.17 1.22 1.27
0.13 0.24 0.29 0.21 0.17 0.04 0.02 0.02 0.02 0.04 0.07 0.06 0.13 0.22 0.30 0.30 0.30 0.32 0.34 0.29 0.16 0.12 0.14 0.18 0.25 0.40 0.56 0.64 0.66 0.71 0.72 0.77 0.73 0.77 0.84 0.93 1.01 1.17 1.29 1.37 1.55 1.81 1.77 1.52
0.06 0.06 0.05 0.04 0.02 0.02 0.02 0.02 0.02 0.03 0.07 0.13 0.13 0.13 0.21 0.30 0.35 0.31 0.27 0.28 0.30 0.32 0.34 0.36 0.37 0.45 0.43 0.47 0.55 0.66 0.78 1.00 1.09 1.13 1.22 1.26 1.25 1.29 1.29 1.25 1.21 1.21 1.15 1.07
0.02 0.04 0.08 0.10 0.11 0.11 0.11 0.11 0.16 0.28 0.33 0.23 0.17 0.19 0.21 0.18 0.22 0.25 0.25 0.23 0.22 0.29 0.31 0.29 0.40 0.56 0.49 0.50 0.62 0.76 0.93 1.08 1.09 1.13 1.13 1.07 0.99 0.89 0.82 0.79 0.75 0.71 0.68 0.68
0.13 0.10 0.13 0.15 0.15 0.21 0.28 0.36 0.46 0.44 0.35 0.35 0.38 0.38 0.34 0.35 0.37 0.44 0.50 0.49 0.48 0.56 0.61 0.62 0.88 0.88 0.86 0.85 0.80 0.86 0.83 0.84 0.80 0.73 0.70 0.68 0.65 0.62 0.61 0.60 0.61 0.56 0.56 0.51
0.19 0.19 0.20 0.23 0.31 0.45 0.46 0.34 0.28 0.31 0.36 0.39 0.38 0.39 0.43 0.46 0.53 0.62 0.71 0.67 0.65 0.75 0.89 1.00 0.95 0.87 0.85 0.77 0.60 0.54 0.49 0.47 0.45 0.46 0.45 0.44 0.39 0.37 0.39 0.36 0.37 0.37 0.36 0.30
0.22 0.30 0.34 0.42 0.45 0.33 0.25 0.29 0.35 0.39 0.47 0.51 0.53 0.68 0.75 0.83 0.86 0.96 0.96 0.82 0.80 0.76 0.95 0.72 0.54 0.37 0.34 0.43 0.46 0.38 0.34 0.35 0.36 0.35 0.33 0.32 0.31 0.29 0.31 0.34 0.37 0.39 0.38 0.38
0.43 0.49 0.34 0.28 0.30 0.37 0.45 0.59 0.59 0.66 0.84 0.76 0.74 0.77 0.80 0.94 0.90 0.83 0.68 0.61 0.60 0.59 0.49 0.38 0.27 0.21 0.21 0.22 0.31 0.43 0.50 0.43 0.40 0.40 0.38 0.37 0.39 0.40 0.39 0.36 0.38 0.45 0.49 0.44
0.68 0.69 0.82 0.73 0.79 0.94 0.83 0.86 0.68 0.77 0.96 0.81 0.63 0.73 0.73 0.79 0.69 0.58 0.45 0.47 0.58 0.42 0.32 0.26 0.20 0.17 0.14 0.15 0.16 0.17 0.33 0.54 0.64 0.59 0.61 0.63 0.61 0.58 0.57 0.53 0.53 0.52 0.49 0.42
0.84 0.90 1.00 0.91 0.74 0.97 1.00 0.80 0.57 0.59 0.61 0.59 0.61 0.62 0.52 0.54 0.47 0.40 0.37 0.33 0.37 0.25 0.16 0.14 0.12 0.09 0.10 0.14 0.18 0.18 0.18 0.28 0.43 0.53 0.63 0.74 0.82 0.81 0.78 0.75 0.70 0.57 0.51 0.46
0.68 0.67 0.70 0.68 0.62 0.60 0.63 0.61 0.56 0.42 0.42 0.46 0.45 0.44 0.37 0.38 0.35 0.30 0.39 0.40 0.26 0.21 0.14 0.12 0.12 0.10 0.11 0.19 0.25 0.25 0.28 0.37 0.47 0.50 0.55 0.66 0.75 0.79 0.76 0.70 0.62 0.58 0.56 0.49
0.54 0.50 0.48 0.45 0.34 0.25 0.32 0.46 0.36 0.36 0.35 0.31 0.24 0.20 0.15 0.16 0.22 0.18 0.19 0.23 0.26 0.29 0.30 0.27 0.25 0.24 0.29 0.42 0.44 0.43 0.45 0.53 0.56 0.52 0.58 0.67 0.70 0.63 0.64 0.61 0.55 0.49 0.47 0.43
0.43 0.42 0.38 0.30 0.25 0.33 0.27 0.23 0.15 0.14 0.14 0.16 0.19 0.15 0.12 0.12 0.21 0.22 0.16 0.16 0.16 0.21 0.28 0.31 0.38 0.40 0.52 0.59 0.55 0.49 0.51 0.56 0.53 0.57 0.62 0.62 0.53 0.47 0.43 0.41 0.42 0.43 0.41 0.39
0.34 0.32 0.31 0.25 0.24 0.20 0.17 0.12 0.14 0.16 0.11 0.15 0.23 0.23 0.22 0.17 0.16 0.17 0.21 0.23 0.22 0.22 0.27 0.31 0.31 0.33 0.39 0.43 0.43 0.41 0.45 0.45 0.47 0.52 0.48 0.43 0.40 0.41 0.39 0.39 0.40 0.40 0.39 0.40
0.31 0.28 0.21 0.18 0.18 0.16 0.16 0.17 0.17 0.20 0.18 0.20 0.27 0.31 0.25 0.23 0.21 0.18 0.20 0.22 0.23 0.25 0.30 0.34 0.34 0.37 0.38 0.38 0.38 0.38 0.39 0.41 0.38 0.37 0.39 0.41 0.42 0.40 0.41 0.41 0.40 0.39 0.39 0.39